Time,TemperatureF,DewpointF,PressureIn,WindDirection,WindDirectionDegrees,WindSpeedMPH,WindSpeedGustMPH,Humidity,HourlyPrecipIn,Conditions,Clouds,dailyrainin,SoftwareType,DateUTC
2013-03-04 00:01:00,54.4,44.0,30.12,NW,323,12.0,-999.0,67,-99.99,,,0.00,weatherlink.com 1.10,2013-03-04 05:01:00,
2013-03-04 00:16:00,54.4,43.0,30.12,NNW,329,13.0,-999.0,66,-99.99,,,0.00,weatherlink.com 1.10,2013-03-04 05:16:00,
2013-03-04 00:31:00,54.2,42.0,30.12,NNW,346,17.0,-999.0,64,-99.99,,,0.00,weatherlink.com 1.10,2013-03-04 05:31:00,
2013-03-04 00:46:00,54.4,44.0,30.12,NNW,348,14.0,-999.0,67,-99.99,,,0.00,weatherlink.com 1.10,2013-03-04 05:46:00,
2013-03-04 01:01:00,54.3,44.0,30.12,NNW,340,13.0,-999.0,68,-99.99,,,0.00,weatherlink.com 1.10,2013-03-04 06:01:00,
2013-03-04 01:16:00,54.2,43.0,30.12,NNW,329,15.0,-999.0,67,-99.99,,,0.00,weatherlink.com 1.10,2013-03-04 06:16:00,
2013-03-04 01:31:00,54.0,43.0,30.11,NNW,339,12.0,-999.0,67,-99.99,,,0.00,weatherlink.com 1.10,2013-03-04 06:31:00,
2013-03-04 01:46:00,54.1,44.0,30.11,NNW,329,12.0,-999.0,68,-99.99,,,0.00,weatherlink.com 1.10,2013-03-04 06:46:00,
2013-03-04 02:01:00,54.0,44.0,30.11,North,360,15.0,-999.0,68,-99.99,,,0.00,weatherlink.com 1.10,2013-03-04 07:01:00,
2013-03-04 02:16:00,53.9,43.0,30.10,NNW,336,17.0,-999.0,66,-99.99,,,0.00,weatherlink.com 1.10,2013-03-04 07:16:00,
2013-03-04 02:31:00,53.9,43.0,30.09,NNW,340,13.0,-999.0,67,-99.99,,,0.00,weatherlink.com 1.10,2013-03-04 07:31:00,
2013-03-04 02:46:00,53.7,42.0,30.09,North,355,16.0,-999.0,65,-99.99,,,0.00,weatherlink.com 1.10,2013-03-04 07:46:00,
2013-03-04 03:01:00,53.6,43.0,30.09,NNW,331,10.0,-999.0,68,-99.99,,,0.00,weatherlink.com 1.10,2013-03-04 08:01:00,
2013-03-04 03:16:00,53.8,44.0,30.09,North,5,17.0,-999.0,69,-99.99,,,0.00,weatherlink.com 1.10,2013-03-04 08:16:00,
2013-03-04 03:31:00,53.6,44.0,30.09,NNW,346,15.0,-999.0,69,-99.99,,,0.00,weatherlink.com 1.10,2013-03-04 08:31:00,
2013-03-04 03:46:00,53.5,44.0,30.09,North,349,12.0,-999.0,69,-99.99,,,0.00,weatherlink.com 1.10,2013-03-04 08:46:00,
2013-03-04 04:01:00,53.2,44.0,30.09,NNE,20,9.0,-999.0,70,-99.99,,,0.00,weatherlink.com 1.10,2013-03-04 09:01:00,
2013-03-04 04:16:00,53.6,44.0,30.09,NNW,338,11.0,-999.0,69,-99.99,,,0.00,weatherlink.com 1.10,2013-03-04 09:16:00,
2013-03-04 04:31:00,53.1,44.0,30.09,NNE,14,7.0,-999.0,70,-99.99,,,0.00,weatherlink.com 1.10,2013-03-04 09:31:00,
2013-03-04 04:46:00,52.7,44.0,30.10,NNE,33,6.0,-999.0,71,-99.99,,,0.00,weatherlink.com 1.10,2013-03-04 09:46:00,
2013-03-04 05:02:00,50.4,42.0,30.11,NE,51,1.0,-999.0,72,-99.99,,,0.00,weatherlink.com 1.10,2013-03-04 10:02:00,
2013-03-04 05:17:00,48.2,41.0,30.11,East,97,0.0,-999.0,75,-99.99,,,0.00,weatherlink.com 1.10,2013-03-04 10:17:00,
2013-03-04 05:32:00,47.0,40.0,30.13,East,99,0.0,-999.0,76,-99.99,,,0.00,weatherlink.com 1.10,2013-03-04 10:32:00,
2013-03-04 05:47:00,45.4,39.0,30.14,ENE,69,0.0,-999.0,77,-99.99,,,0.00,weatherlink.com 1.10,2013-03-04 10:47:00,
2013-03-04 06:02:00,44.7,38.0,30.14,ENE,73,0.0,-999.0,78,-99.99,,,0.00,weatherlink.com 1.10,2013-03-04 11:02:00,
2013-03-04 06:17:00,44.3,38.0,30.15,ENE,72,0.0,-999.0,77,-99.99,,,0.00,weatherlink.com 1.10,2013-03-04 11:17:00,
2013-03-04 06:32:00,43.9,37.0,30.15,ENE,72,4.0,-999.0,77,-99.99,,,0.00,weatherlink.com 1.10,2013-03-04 11:32:00,
2013-03-04 06:47:00,44.0,37.0,30.16,ENE,67,0.0,-999.0,77,-99.99,,,0.00,weatherlink.com 1.10,2013-03-04 11:47:00,
2013-03-04 07:02:00,43.9,37.0,30.16,ENE,67,6.0,-999.0,77,-99.99,,,0.00,weatherlink.com 1.10,2013-03-04 12:02:00,
2013-03-04 07:17:00,44.3,37.0,30.17,ENE,65,0.0,-999.0,76,-99.99,,,0.00,weatherlink.com 1.10,2013-03-04 12:17:00,
2013-03-04 07:32:00,43.9,37.0,30.17,ENE,65,1.0,-999.0,76,-99.99,,,0.00,weatherlink.com 1.10,2013-03-04 12:32:00,
2013-03-04 07:47:00,43.9,37.0,30.17,NE,56,2.0,-999.0,76,-99.99,,,0.00,weatherlink.com 1.10,2013-03-04 12:47:00,
2013-03-04 08:02:00,44.9,37.0,30.17,ENE,67,5.0,-999.0,75,-99.99,,,0.00,weatherlink.com 1.10,2013-03-04 13:02:00,
2013-03-04 08:17:00,46.1,36.0,30.18,ENE,69,4.0,-999.0,69,-99.99,,,0.00,weatherlink.com 1.10,2013-03-04 13:17:00,
2013-03-04 08:32:00,47.6,36.0,30.18,ENE,64,3.0,-999.0,64,-99.99,,,0.00,weatherlink.com 1.10,2013-03-04 13:32:00,
2013-03-04 08:47:00,48.2,36.0,30.19,ENE,59,5.0,-999.0,62,-99.99,,,0.00,weatherlink.com 1.10,2013-03-04 13:47:00,
2013-03-04 09:02:00,48.6,36.0,30.19,ENE,64,4.0,-999.0,62,-99.99,,,0.00,weatherlink.com 1.10,2013-03-04 14:02:00,
2013-03-04 09:17:00,49.1,36.0,30.20,NE,56,7.0,-999.0,62,-99.99,,,0.00,weatherlink.com 1.10,2013-03-04 14:17:00,
2013-03-04 09:32:00,49.7,37.0,30.20,ENE,63,3.0,-999.0,61,-99.99,,,0.00,weatherlink.com 1.10,2013-03-04 14:32:00,
2013-03-04 09:47:00,50.3,38.0,30.19,NNE,30,2.0,-999.0,63,-99.99,,,0.00,weatherlink.com 1.10,2013-03-04 14:47:00,
2013-03-04 10:02:00,51.1,38.0,30.19,ENE,69,4.0,-999.0,61,-99.99,,,0.00,weatherlink.com 1.10,2013-03-04 15:02:00,
2013-03-04 10:18:00,51.5,38.0,30.19,NNE,32,7.0,-999.0,60,-99.99,,,0.00,weatherlink.com 1.10,2013-03-04 15:18:00,
2013-03-04 10:32:00,52.0,38.0,30.18,NE,44,7.0,-999.0,59,-99.99,,,0.00,weatherlink.com 1.10,2013-03-04 15:32:00,
2013-03-04 10:47:00,52.6,38.0,30.18,NE,37,3.0,-999.0,58,-99.99,,,0.00,weatherlink.com 1.10,2013-03-04 15:47:00,
2013-03-04 11:02:00,53.1,38.0,30.18,NE,43,6.0,-999.0,58,-99.99,,,0.00,weatherlink.com 1.10,2013-03-04 16:02:00,
2013-03-04 11:17:00,53.6,39.0,30.18,NNE,26,2.0,-999.0,58,-99.99,,,0.00,weatherlink.com 1.10,2013-03-04 16:17:00,
2013-03-04 11:32:00,53.5,39.0,30.17,NNW,342,5.0,-999.0,59,-99.99,,,0.00,weatherlink.com 1.10,2013-03-04 16:32:00,
2013-03-04 11:47:00,54.0,40.0,30.17,NW,321,5.0,-999.0,60,-99.99,,,0.00,weatherlink.com 1.10,2013-03-04 16:47:00,
2013-03-04 12:02:00,54.3,40.0,30.16,NNW,327,7.0,-999.0,59,-99.99,,,0.00,weatherlink.com 1.10,2013-03-04 17:02:00,
2013-03-04 12:17:00,55.0,39.0,30.16,NNW,329,5.0,-999.0,56,-99.99,,,0.00,weatherlink.com 1.10,2013-03-04 17:17:00,
2013-03-04 12:32:00,55.6,38.0,30.14,NNW,348,8.0,-999.0,53,-99.99,,,0.00,weatherlink.com 1.10,2013-03-04 17:32:00,
2013-03-04 12:47:00,56.2,40.0,30.14,NNW,343,6.0,-999.0,54,-99.99,,,0.00,weatherlink.com 1.10,2013-03-04 17:47:00,
2013-03-04 13:03:00,56.5,40.0,30.12,North,355,8.0,-999.0,54,-99.99,,,0.00,weatherlink.com 1.10,2013-03-04 18:03:00,
2013-03-04 13:33:00,57.2,41.0,30.12,NNW,344,7.0,-999.0,55,-99.99,,,0.00,weatherlink.com 1.10,2013-03-04 18:33:00,
2013-03-04 13:48:00,57.4,44.0,30.11,WNW,302,11.0,-999.0,62,-99.99,,,0.00,weatherlink.com 1.10,2013-03-04 18:48:00,
2013-03-04 14:03:00,56.8,44.0,30.11,WNW,296,14.0,-999.0,63,-99.99,,,0.00,weatherlink.com 1.10,2013-03-04 19:03:00,
2013-03-04 14:18:00,56.6,44.0,30.11,NW,306,13.0,-999.0,63,-99.99,,,0.00,weatherlink.com 1.10,2013-03-04 19:18:00,
2013-03-04 14:33:00,56.6,44.0,30.11,NW,306,12.0,-999.0,62,-99.99,,,0.00,weatherlink.com 1.10,2013-03-04 19:33:00,
2013-03-04 14:48:00,56.9,44.0,30.10,NW,309,11.0,-999.0,63,-99.99,,,0.00,weatherlink.com 1.10,2013-03-04 19:48:00,
2013-03-04 15:03:00,57.0,44.0,30.10,WNW,298,11.0,-999.0,63,-99.99,,,0.00,weatherlink.com 1.10,2013-03-04 20:03:00,
2013-03-04 15:18:00,56.8,45.0,30.10,NW,316,12.0,-999.0,64,-99.99,,,0.00,weatherlink.com 1.10,2013-03-04 20:18:00,
2013-03-04 15:33:00,56.6,44.0,30.10,WNW,290,9.0,-999.0,64,-99.99,,,0.00,weatherlink.com 1.10,2013-03-04 20:33:00,
2013-03-04 15:48:00,56.6,44.0,30.10,WNW,290,11.0,-999.0,64,-99.99,,,0.00,weatherlink.com 1.10,2013-03-04 20:48:00,
2013-03-04 16:03:00,56.8,45.0,30.10,WNW,286,8.0,-999.0,64,-99.99,,,0.00,weatherlink.com 1.10,2013-03-04 21:03:00,
2013-03-04 16:18:00,57.1,45.0,30.10,NW,312,8.0,-999.0,64,-99.99,,,0.00,weatherlink.com 1.10,2013-03-04 21:18:00,
2013-03-04 16:33:00,56.8,45.0,30.10,WNW,299,8.0,-999.0,65,-99.99,,,0.00,weatherlink.com 1.10,2013-03-04 21:33:00,
2013-03-04 16:48:00,56.9,44.0,30.10,WNW,300,9.0,-999.0,63,-99.99,,,0.00,weatherlink.com 1.10,2013-03-04 21:48:00,
2013-03-04 17:03:00,57.0,46.0,30.10,NW,304,9.0,-999.0,66,-99.99,,,0.00,weatherlink.com 1.10,2013-03-04 22:03:00,
2013-03-04 17:18:00,57.0,45.0,30.10,NW,319,10.0,-999.0,65,-99.99,,,0.00,weatherlink.com 1.10,2013-03-04 22:18:00,
2013-03-04 17:33:00,57.1,46.0,30.10,NW,314,8.0,-999.0,66,-99.99,,,0.00,weatherlink.com 1.10,2013-03-04 22:33:00,
2013-03-04 17:48:00,57.1,47.0,30.10,NNW,344,9.0,-999.0,68,-99.99,,,0.00,weatherlink.com 1.10,2013-03-04 22:48:00,
2013-03-04 18:03:00,57.1,47.0,30.11,NNW,327,8.0,-999.0,68,-99.99,,,0.00,weatherlink.com 1.10,2013-03-04 23:03:00,
2013-03-04 18:18:00,56.9,46.0,30.11,NW,325,8.0,-999.0,66,-99.99,,,0.00,weatherlink.com 1.10,2013-03-04 23:18:00,
2013-03-04 18:33:00,56.8,46.0,30.11,NNW,342,8.0,-999.0,68,-99.99,,,0.00,weatherlink.com 1.10,2013-03-04 23:33:00,
2013-03-04 18:48:00,56.6,46.0,30.11,NNW,342,7.0,-999.0,68,-99.99,,,0.00,weatherlink.com 1.10,2013-03-04 23:48:00,
2013-03-04 19:03:00,56.5,46.0,30.11,NNW,344,8.0,-999.0,69,-99.99,,,0.00,weatherlink.com 1.10,2013-03-05 00:03:00,
2013-03-04 19:18:00,56.6,46.0,30.11,NNW,348,6.0,-999.0,69,-99.99,,,0.00,weatherlink.com 1.10,2013-03-05 00:18:00,
2013-03-04 19:33:00,56.6,47.0,30.11,NNW,342,6.0,-999.0,70,-99.99,,,0.00,weatherlink.com 1.10,2013-03-05 00:33:00,
2013-03-04 19:48:00,56.5,47.0,30.12,North,360,5.0,-999.0,71,-99.99,,,0.00,weatherlink.com 1.10,2013-03-05 00:48:00,
2013-03-04 20:03:00,56.2,47.0,30.12,NNE,19,4.0,-999.0,71,-99.99,,,0.00,weatherlink.com 1.10,2013-03-05 01:03:00,
2013-03-04 20:18:00,56.0,47.0,30.11,NNE,21,7.0,-999.0,72,-99.99,,,0.00,weatherlink.com 1.10,2013-03-05 01:18:00,
2013-03-04 20:33:00,55.8,47.0,30.11,NNE,25,5.0,-999.0,72,-99.99,,,0.00,weatherlink.com 1.10,2013-03-05 01:33:00,
2013-03-04 20:48:00,55.8,47.0,30.12,NNE,29,5.0,-999.0,71,-99.99,,,0.00,weatherlink.com 1.10,2013-03-05 01:48:00,
2013-03-04 21:03:00,55.8,47.0,30.12,NNE,31,5.0,-999.0,72,-99.99,,,0.00,weatherlink.com 1.10,2013-03-05 02:03:00,
2013-03-04 21:18:00,55.6,46.0,30.12,NNE,31,5.0,-999.0,71,-99.99,,,0.00,weatherlink.com 1.10,2013-03-05 02:18:00,
2013-03-04 21:33:00,55.4,46.0,30.12,NNE,31,4.0,-999.0,72,-99.99,,,0.00,weatherlink.com 1.10,2013-03-05 02:33:00,
2013-03-04 21:48:00,55.5,46.0,30.13,NNE,32,4.0,-999.0,71,-99.99,,,0.00,weatherlink.com 1.10,2013-03-05 02:48:00,
2013-03-04 22:03:00,55.0,46.0,30.13,NNE,32,0.0,-999.0,72,-99.99,,,0.00,weatherlink.com 1.10,2013-03-05 03:03:00,
2013-03-04 22:18:00,54.0,46.0,30.14,NNE,32,0.0,-999.0,73,-99.99,,,0.00,weatherlink.com 1.10,2013-03-05 03:18:00,
2013-03-04 22:33:00,53.7,46.0,30.14,NNE,32,0.0,-999.0,74,-99.99,,,0.00,weatherlink.com 1.10,2013-03-05 03:33:00,
2013-03-04 22:48:00,53.3,46.0,30.14,NNE,32,0.0,-999.0,75,-99.99,,,0.00,weatherlink.com 1.10,2013-03-05 03:48:00,
2013-03-04 23:03:00,53.0,45.0,30.13,NNE,32,0.0,-999.0,75,-99.99,,,0.00,weatherlink.com 1.10,2013-03-05 04:03:00,
2013-03-04 23:18:00,52.5,45.0,30.13,NNE,32,0.0,-999.0,76,-99.99,,,0.00,weatherlink.com 1.10,2013-03-05 04:18:00,
2013-03-04 23:33:00,52.2,45.0,30.13,NNE,32,0.0,-999.0,76,-99.99,,,0.00,weatherlink.com 1.10,2013-03-05 04:33:00,
2013-03-04 23:48:00,51.9,45.0,30.12,NNE,32,0.0,-999.0,77,-99.99,,,0.00,weatherlink.com 1.10,2013-03-05 04:48:00,